Tracking 27122 objects as of 25-Mar-2023
HD Live streaming from Space Station
objects crossing your sky now

STARLINK-3741

Track STARLINK-3741 now!
10-day predictions
STARLINK-3741 is classified as:


NORAD ID: 52619
Int'l Code: 2022-052X
Perigee: 545.8 km
Apogee: 548.0 km
Inclination: 53.2 °
Period: 95.4 minutes
Semi major axis: 6917 km
RCS: Unknown
Launch date: May 14, 2022
Source: United States (US)
Launch site: AIR FORCE EASTERN TEST RANGE (AFETR)
Your satellite tracking list
Your tracking list is empty




NASA's NSSDC Master Catalog

Two Line Element Set (TLE):
1 52619U 22052X   23083.70435582 -.00002807  00000-0 -15829-3 0  9991
2 52619  53.2143  81.8503 0001595  93.3047 266.8128 15.08842834 47797
Source of the keplerian elements: AFSPC